• In Uzbekistan
  • List of Countries
  • For 7 days
  • Water Temperature
  • Weather Map
  • Weather Widgets
  • user-avatar
    Login

    Hourly Weather Islamabad

    Today, 4 April, Saturday

    Time Temperature Precipitation Wind Pressure Humidity
    00:00 +19°C° 0 mm 1 mps 714 mmHg 62%
    01:00 +18°C° 0 mm 1 mps 714 mmHg 63%
    02:00 +18°C° 0 mm 1 mps 714 mmHg 64%
    03:00 +18°C° 0 mm 1 mps 714 mmHg 64%
    04:00 +16°C° 0 mm 1 mps 714 mmHg 65%
    05:00 +16°C° 0 mm 1 mps 714 mmHg 66%
    06:00 +19°C° 0 mm 1 mps 714 mmHg 62%
    07:00 +20°C° 0 mm 1 mps 715 mmHg 58%
    08:00 +22°C° 0 mm 1 mps 715 mmHg 55%
    09:00 +23°C° 0 mm 1 mps 716 mmHg 50%
    10:00 +25°C° 0 mm 1 mps 716 mmHg 46%
    11:00 +27°C° 0 mm 1 mps 717 mmHg 41%
    12:00 +27°C° 0 mm 2 mps 716 mmHg 39%
    13:00 +28°C° 0 mm 2 mps 716 mmHg 37%
    14:00 +29°C° 0 mm 3 mps 715 mmHg 35%
    15:00 +28°C° 0 mm 3 mps 715 mmHg 37%
    16:00 +28°C° 0 mm 2 mps 714 mmHg 39%
    17:00 +28°C° 0 mm 2 mps 714 mmHg 41%
    18:00 +26°C° 0 mm 2 mps 714 mmHg 44%
    19:00 +24°C° 0 mm 1 mps 714 mmHg 48%
    20:00 +22°C° 0 mm 1 mps 714 mmHg 51%
    21:00 +21°C° 0 mm 1 mps 714 mmHg 53%
    22:00 +21°C° 0 mm 1 mps 715 mmHg 54%
    23:00 +20°C° 0 mm 2 mps 715 mmHg 55%

    Tomorrow, 5 April, Sunday

    Time Temperature Precipitation Wind Pressure Humidity
    00:00 +19°C° 0 mm 2 mps 714 mmHg 56%
    01:00 +19°C° 0 mm 2 mps 714 mmHg 57%
    02:00 +19°C° 0 mm 2 mps 714 mmHg 57%
    03:00 +19°C° 0 mm 2 mps 714 mmHg 57%
    04:00 +19°C° 0 mm 2 mps 714 mmHg 57%
    05:00 +19°C° 0 mm 2 mps 713 mmHg 57%
    06:00 +21°C° 0 mm 1 mps 714 mmHg 56%
    07:00 +22°C° 0 mm 1 mps 715 mmHg 54%
    08:00 +23°C° 0 mm 1 mps 715 mmHg 53%
    09:00 +24°C° 0 mm 1 mps 716 mmHg 49%
    10:00 +25°C° 0 mm 1 mps 716 mmHg 44%
    11:00 +26°C° 0 mm 1 mps 716 mmHg 40%
    12:00 +27°C° 0 mm 1 mps 716 mmHg 35%
    13:00 +28°C° 0 mm 1 mps 716 mmHg 30%
    14:00 +29°C° 0 mm 1 mps 716 mmHg 26%
    15:00 +28°C° 0 mm 2 mps 715 mmHg 30%
    16:00 +28°C° 0 mm 3 mps 715 mmHg 34%
    17:00 +27°C° 0 mm 3 mps 715 mmHg 39%
    18:00 +25°C° 0 mm 3 mps 715 mmHg 42%
    19:00 +22°C° 0 mm 3 mps 715 mmHg 46%
    20:00 +20°C° 0 mm 3 mps 715 mmHg 50%
    21:00 +20°C° 0 mm 3 mps 715 mmHg 48%
    22:00 +20°C° 0 mm 3 mps 715 mmHg 47%
    23:00 +20°C° 0 mm 3 mps 715 mmHg 46%

    Day after tomorrow, 6 April, Monday

    Time Temperature Precipitation Wind Pressure Humidity
    00:00 +20°C° 0 mm 3 mps 715 mmHg 47%
    01:00 +19°C° 0 mm 2 mps 714 mmHg 47%
    02:00 +19°C° 0 mm 2 mps 714 mmHg 48%
    03:00 +19°C° 0 mm 2 mps 714 mmHg 48%
    04:00 +19°C° 0 mm 2 mps 714 mmHg 48%
    05:00 +19°C° 0 mm 2 mps 713 mmHg 48%
    06:00 +20°C° 0 mm 2 mps 714 mmHg 48%
    07:00 +22°C° 0 mm 1 mps 715 mmHg 47%
    08:00 +23°C° 0 mm 1 mps 715 mmHg 47%
    09:00 +24°C° 0 mm 1 mps 715 mmHg 42%
    10:00 +26°C° 0 mm 1 mps 716 mmHg 37%
    11:00 +28°C° 0 mm 1 mps 716 mmHg 32%
    12:00 +28°C° 0 mm 1 mps 715 mmHg 31%
    13:00 +29°C° 0 mm 2 mps 715 mmHg 29%
    14:00 +30°C° 0 mm 2 mps 715 mmHg 27%
    15:00 +29°C° 0 mm 2 mps 714 mmHg 30%
    16:00 +29°C° 0 mm 1 mps 714 mmHg 33%
    17:00 +29°C° 0 mm 1 mps 713 mmHg 35%
    18:00 +27°C° 0 mm 1 mps 714 mmHg 38%
    19:00 +26°C° 0 mm 1 mps 714 mmHg 40%
    20:00 +24°C° 0 mm 1 mps 714 mmHg 42%
    21:00 +23°C° 0 mm 2 mps 714 mmHg 45%
    22:00 +21°C° 0 mm 2 mps 714 mmHg 48%
    23:00 +20°C° 0 mm 2 mps 714 mmHg 51%

    7 April, Tuesday

    Time Temperature Precipitation Wind Pressure Humidity
    00:00 +20°C° 0.1 mm 3 mps 713 mmHg 55%
    01:00 +20°C° 0.1 mm 3 mps 713 mmHg 59%
    02:00 +19°C° 0.1 mm 3 mps 713 mmHg 63%
    03:00 +19°C° 0 mm 3 mps 712 mmHg 63%
    04:00 +19°C° 0 mm 2 mps 712 mmHg 63%
    05:00 +20°C° 0 mm 1 mps 711 mmHg 62%
    06:00 +19°C° 0 mm 2 mps 712 mmHg 63%
    07:00 +19°C° 0 mm 2 mps 712 mmHg 64%
    08:00 +20°C° 0 mm 3 mps 713 mmHg 64%
    09:00 +20°C° 0 mm 3 mps 713 mmHg 61%
    10:00 +21°C° 0 mm 3 mps 713 mmHg 59%
    11:00 +22°C° 0 mm 3 mps 714 mmHg 56%
    12:00 +24°C° 0 mm 3 mps 714 mmHg 52%
    13:00 +25°C° 0 mm 3 mps 713 mmHg 47%
    14:00 +26°C° 0 mm 2 mps 713 mmHg 43%
    15:00 +26°C° 0 mm 2 mps 713 mmHg 44%
    16:00 +26°C° 0 mm 3 mps 712 mmHg 44%
    17:00 +26°C° 0 mm 3 mps 712 mmHg 45%
    18:00 +25°C° 0 mm 2 mps 712 mmHg 48%
    19:00 +23°C° 0 mm 2 mps 712 mmHg 52%
    20:00 +21°C° 0 mm 2 mps 711 mmHg 55%
    21:00 +21°C° 0 mm 2 mps 711 mmHg 56%
    22:00 +20°C° 0 mm 2 mps 711 mmHg 56%
    23:00 +20°C° 0 mm 2 mps 711 mmHg 57%

    8 April, Wednesday

    Time Temperature Precipitation Wind Pressure Humidity
    00:00 +20°C° 0 mm 3 mps 711 mmHg 53%
    01:00 +20°C° 0 mm 4 mps 711 mmHg 50%
    02:00 +20°C° 0 mm 4 mps 710 mmHg 47%
    03:00 +20°C° 0 mm 4 mps 710 mmHg 48%
    04:00 +19°C° 0 mm 3 mps 710 mmHg 50%
    05:00 +19°C° 0 mm 2 mps 710 mmHg 52%
    06:00 +20°C° 0 mm 2 mps 710 mmHg 50%
    07:00 +21°C° 0 mm 2 mps 711 mmHg 49%
    08:00 +23°C° 0 mm 2 mps 711 mmHg 47%
    09:00 +24°C° 0 mm 2 mps 712 mmHg 44%
    10:00 +26°C° 0 mm 2 mps 712 mmHg 40%
    11:00 +27°C° 0 mm 2 mps 713 mmHg 36%
    12:00 +28°C° 0 mm 2 mps 713 mmHg 34%
    13:00 +29°C° 0 mm 2 mps 712 mmHg 32%
    14:00 +29°C° 0 mm 3 mps 712 mmHg 30%
    15:00 +29°C° 0 mm 3 mps 712 mmHg 31%
    16:00 +29°C° 0 mm 2 mps 711 mmHg 33%
    17:00 +28°C° 0 mm 2 mps 711 mmHg 34%
    18:00 +27°C° 0 mm 2 mps 711 mmHg 39%
    19:00 +25°C° 0 mm 3 mps 711 mmHg 44%
    20:00 +22°C° 0 mm 3 mps 711 mmHg 49%
    21:00 +22°C° 0 mm 3 mps 712 mmHg 50%
    22:00 +21°C° 0 mm 3 mps 712 mmHg 52%
    23:00 +20°C° 0 mm 3 mps 712 mmHg 54%

    9 April, Thursday

    Time Temperature Precipitation Wind Pressure Humidity
    00:00 +20°C° 0 mm 4 mps 711 mmHg 53%
    01:00 +20°C° 0 mm 4 mps 711 mmHg 52%
    02:00 +20°C° 0 mm 4 mps 711 mmHg 51%
    03:00 +20°C° 0.1 mm 4 mps 711 mmHg 54%
    04:00 +19°C° 0.1 mm 3 mps 711 mmHg 58%
    05:00 +19°C° 0.1 mm 3 mps 710 mmHg 61%
    06:00 +19°C° 0.1 mm 4 mps 711 mmHg 64%
    07:00 +19°C° 0.1 mm 4 mps 712 mmHg 67%
    08:00 +19°C° 0.1 mm 5 mps 712 mmHg 70%
    09:00 +19°C° 0.4 mm 5 mps 713 mmHg 68%
    10:00 +19°C° 0.4 mm 5 mps 713 mmHg 66%
    11:00 +20°C° 0.4 mm 6 mps 714 mmHg 64%
    12:00 +21°C° 0.2 mm 6 mps 714 mmHg 60%
    13:00 +22°C° 0.2 mm 5 mps 713 mmHg 57%
    14:00 +23°C° 0.2 mm 5 mps 713 mmHg 53%
    15:00 +23°C° 0 mm 5 mps 713 mmHg 52%
    16:00 +23°C° 0 mm 5 mps 713 mmHg 51%
    17:00 +23°C° 0 mm 4 mps 712 mmHg 50%
    18:00 +22°C° 0 mm 4 mps 713 mmHg 52%
    19:00 +20°C° 0 mm 3 mps 713 mmHg 55%
    20:00 +19°C° 0 mm 3 mps 713 mmHg 57%
    21:00 +18°C° 0 mm 3 mps 713 mmHg 58%
    22:00 +18°C° 0 mm 3 mps 713 mmHg 58%
    23:00 +18°C° 0 mm 2 mps 713 mmHg 58%
    Show more